Regional Weather Roundup
Issued by NWS San Diego, CA

Home | Current Version | Previous Version | Text Only | Print | Product List | Glossary On
Versions: 1 2 3 4 5 6 7 8 9 10 11 12 13 14 15 16 17 18 19 20 21 22 23 24 25 26 27 28 29 30 31 32 33 34 35 36 37 38 39 40 41 42 43 44 45 46 47 48 49 50
000
ASUS46 KSGX 191410
RWRSGX

SAN DIEGO HOURLY WEATHER ROUNDUP
NATIONAL WEATHER SERVICE SAN DIEGO CA
600 AM PST FRI DEC 19 2014

NOTE: "FAIR" INDICATES FEW OR NO CLOUDS BELOW 12,000 FEET WITH NO
SIGNIFICANT WEATHER AND/OR OBSTRUCTIONS TO VISIBILITY.

CAZ042-043-060-061-PZZ750-775-191500-

GREATER SAN DIEGO AREA

CITY           SKY/WX    TMP DP  RH WIND       PRES   REMARKS
LINDBERGH FLD  MOCLDY    53  45  74 CALM      30.23R
POINT LOMA       N/A     52  47  82 E5          N/A
CHULA VISTA      N/A     50  47  91 CALM      30.15R
IMPERIAL BEACH MOCLDY    51  47  86 E8        30.21R
BROWN FIELD    MOCLDY    48  44  86 SE5       30.21R
MIRAMAR MCAS   MOCLDY    50  45  83 E8        30.20R
MONTGOMERY FLD MOCLDY    49  46  90 CALM      30.21R

$$

NORTH SAN DIEGO COUNTY

CITY           SKY/WX    TMP DP  RH WIND       PRES   REMARKS
CAMP PENDLETON MOCLDY    43  41  93 CALM      30.22R
OCEANSIDE AP   MOCLDY    47  43  86 NE3       30.21R
VISTA            N/A     47  43  88 CALM      30.20R
CARLSBAD       CLOUDY    51  45  79 E6        30.19R
FALLBROOK        N/A     49  47  95 NE1       30.22R
SAN MARCOS       N/A     50  46  86 CALM      30.20R
POWAY            N/A     43  41  92 CALM      30.25R

$$

EAST SAN DIEGO COUNTY

CITY           SKY/WX    TMP DP  RH WIND       PRES   REMARKS
RAMONA         MOCLDY    37  36  96 SE3       30.21R
SANTEE LAKES     N/A     44  43  94 CALM      30.24R
LA MESA          N/A     49  46  89 E7        30.16
DESCANSO N       N/A     37  34  89 CALM      30.18R
MT. LAGUNA OBS   N/A     38  18  44 CALM      29.77R
CAMPO            N/A     33  30  88 N3        30.18R

$$

ORANGE COUNTY AND THE LOS ANGELES BASIN

CITY           SKY/WX    TMP DP  RH WIND       PRES   REMARKS
JOHN WAYNE AP  PTCLDY    52  45  77 CALM      30.22R
LAKE FOREST FR   N/A     49  42  74 CALM      30.13R
HUNTINGTON BCH   N/A     47  46  97 W2        30.24R
LOS ALAMITOS   FAIR      48  46  94 N3        30.22R
FULLERTON      PTCLDY    49  45  86 CALM      30.21R
LONG BEACH     PTCLDY    49  46  90 NW3       30.22R
L.A. AP        PTCLDY    52  45  77 CALM      30.22R
L.A. DOWNTOWN  PTCLDY    50  44  80 CALM      30.22R

$$

THE INLAND EMPIRE

CITY           SKY/WX    TMP DP  RH WIND       PRES   REMARKS
CORONA         MOCLDY    41  41 100 CALM      30.23R
CHINO          MOCLDY    43  41  93 W3        30.23R
ONTARIO        MOCLDY    47  39  74 CALM      30.22R
RIVERSIDE AP   MOCLDY    45  41  86 NE5       30.22R
RIV CYN CREST    N/A     47  47 100 S3          N/A
MORENO VALLEY    N/A     45  44  97 CALM      29.39R
MARCH ARB      MOCLDY    40  40 100 S1        30.21R
HORSETHIEF CYN   N/A     45  39  82 CALM      30.22S
PERRIS           N/A     43  42  97 CALM      30.23S
MENIFEE          N/A     41  41  99 CALM      30.31S
HEMET EAST       N/A     43  33  67 CALM      30.25R
FRENCH VALLEY  FAIR      41  41 100 CALM      30.21F
TEMECULA         N/A     42  42  97 CALM      30.19R

$$

SAN BERNARDINO AND RIVERSIDE COUNTY MOUNTAINS

CITY           SKY/WX    TMP DP  RH WIND       PRES   REMARKS
BIG BEAR AP    PTCLDY    19  18  93 CALM      30.23S
ANGELUS OAKS     N/A     32  26  80 CALM      30.27S

$$

SOUTHERN DESERT INCLUDING THE COACHELLA VALLEY

CITY           SKY/WX    TMP DP  RH WIND       PRES   REMARKS
PALM SPRINGS   PTCLDY    49  40  71 NW7       30.24R
THOUSAND PALMS   N/A     46  38  76 W1        30.19R
THERMAL        MOCLDY    45  38  76 NW8       30.21R
BLYTHE         CLEAR     46  40  79 W6        30.22R
IMPERIAL AP    CLEAR     43  40  89 SW3       30.21R
EL CENTRO NAS  PTCLDY    44  41  89 W6        30.21R
YUMA AZ        PTCLDY    46  41  83 CALM      30.20R

$$

UPPER DESERT

CITY           SKY/WX    TMP DP  RH WIND       PRES   REMARKS
VICTORVILLE AP   N/A     36  34  93 SE8       30.21F WCI  29
HESPERIA         N/A     36  34  92 W3        30.40F
APPLE VALLEY     N/A     35  32  91 CALM      30.28S
PALMDALE       PTCLDY    38  34  85 N7        30.22R WCI  33
LANCASTER      PTCLDY    33  31  92 CALM      30.23R
EDWARDS AFB    MOCLDY    35  35  99 NW3       30.22R
DAGGETT        MOCLDY    39  34  82 W9        30.24R WCI  33
29 PALMS N     MOCLDY    39  34  82 NW6       30.31R WCI  35
NEEDLES        CLEAR     44  38  79 S5        30.22R

$$

REGIONAL REPORTS

CITY           SKY/WX    TMP DP  RH WIND       PRES   REMARKS
SANTA BARBARA  CLEAR     48  46  93 E3        30.19S
SANDBERG       PTCLDY    43  31  62 NW6       30.23R
MT. WILSON       N/A     36  34  93 S3          N/A
LAS VEGAS NV   PTCLDY    41  35  79 SW6       30.20R
PHOENIX AZ     PTCLDY    45  42  89 CALM      30.20R
TIJUANA        PTCLDY    48  43  81 CALM      30.23R
ENSENADA NW      N/A     54  32  43 E3        30.19R

$$

OFFSHORE ISLANDS

CITY           SKY/WX    TMP DP  RH WIND       PRES   REMARKS
CATALINA ARPT  CLOUDY    51  51 100 CALM      30.22S FOG
SAN NICOLAS IS CLOUDY   N/A N/A N/A NW7       30.20F

$$

MARINE AND OFFSHORE BUOY REPORTS

STATION/POSITION SKY/WX   TEMP    WIND        PRES    SWELL
                          AIR SEA DIR/SP/G            HT/PER/DIR
                          (F)     (DEG/KT/KT) (MB)    (FT/S/D)
TANNER BANKS               61 64  350/  8/ 12 1022.6F   8/310/13
S CLEMENTE BASIN           62 65  320/  8/ 10 1022.4R   5/290/14
SAN NICOLAS IS.               62                N/A     5/300/13
SO. S. ROSA ISLA           60 62   60/  4/  6 1021.8F   8/13
W. S. BARBARA CH           59 61   CALM  /  2 1021.8R   7/300/11
S. MONICA BASIN            60 64  340/  8/ 10 1023.0F   3/270/13
S PEDRO CHANNEL               64                N/A     2/260/11
DANA POINT                    64                N/A     2/280/11
CMP PENDLETON NS              64                N/A     2/240/13
OCEANSIDE OFFSHR              64                N/A     2/230/13
TORREY PINES OTR              65                N/A     3/260/14
LA JOLLA 1                 56 64   90/  8/ 10 1022.8R
SAN DIEGO BAY                 65              1023.7R
POINT LOMA SOUTH              65                N/A     3/280/13

$$




USA.gov is the U.S. government's official web portal to all federal, state and local government web resources and services.